#timestamp,LO_Frequency,Hit 
1505268015.3,286047003.9,N
1505268035.1,286046998.4,N
1505268055.9,286046999.6,N
1505268075.7,286047002.1,N
1505268095.5,286047005.6,N
1505268115.3,286047004.3,N
1505268135.2,286047002.1,N
1505268155.0,286047000.0,N
1505268155.9,286047000.0,N
1505268175.7,286046999.5,N
1505268195.6,286047000.9,N
1505268215.4,286047003.5,N
1505268235.2,286047007.9,N
1505268255.1,286047010.3,N
1505268256.0,286047010.3,N
1505268275.8,286047006.6,N
1505268295.6,286047007.3,N
1505268315.5,286047006.6,N
1505268335.3,286047006.9,N
1505268355.1,286047011.7,N
1505268375.8,286047010.4,N
1505268395.7,286047003.9,N
1505268415.5,286047001.1,N
1505268435.3,286047000.9,N
1505268455.2,286047001.0,N
1505268475.0,286047000.3,N
1505268475.9,286047000.3,N
1505268495.7,286046998.4,N
1505268515.6,286046998.9,N
1505268535.4,286046994.2,N
1505268555.2,286046994.1,N
1505268575.1,286046990.6,N
1505268576.0,286046990.6,N
1505268595.8,286046991.7,N
1505268615.6,286046998.4,N
1505268635.5,286047003.4,N
1505268655.3,286047006.5,N
1505268675.1,286047012.1,N
1505268695.9,286047018.3,P
1505268715.7,286047018.8,N
1505268735.5,286047016.0,N
1505268755.4,286047013.0,N
1505268775.2,286047014.9,N
1505268795.0,286047015.0,N
1505268795.9,286047015.0,N
1505268815.8,286047015.6,P
1505268835.6,286047002.8,P
1505268855.4,286047002.3,N
1505268875.3,286047002.2,N
1505268895.1,286047004.5,N
1505268896.0,286047004.5,N
1505268915.8,286047005.8,N
1505268935.7,286047003.5,N
1505268955.5,286047001.9,N
1505268975.3,286047003.0,N
1505268995.2,286047004.9,N
1505269015.9,286047008.7,N
1505269035.7,286047006.7,N
1505269055.5,286047006.4,N
1505269075.4,286047005.7,N
1505269095.2,286047003.5,N
1505269115.0,286047003.1,N
1505269115.9,286047003.1,N
1505269135.8,286047003.6,N
1505269155.6,286047005.3,N
1505269175.4,286047009.0,N
1505269195.3,286047009.7,N
1505269215.1,286047008.8,N
1505269216.0,286047008.8,N
1505269235.8,286047009.5,N
1505269255.7,286047012.4,P
1505269275.5,286047003.0,N
1505269295.3,286047003.8,N
1505269315.2,286047004.5,N
1505269335.9,286047003.7,N
1505269355.7,286047004.3,N
1505269375.6,286047008.6,N
1505269395.4,286047010.3,P
1505269415.2,286047004.2,N
1505269435.1,286047008.4,P
1505269436.0,286047008.4,P
1505269455.8,286046999.0,N
1505269475.6,286046996.4,N
1505269495.5,286046992.0,N
1505269515.3,286046990.7,N
1505269535.1,286046986.4,N
1505269555.9,286046980.6,N
1505269575.7,286046977.5,N
1505269595.5,286046973.4,N
1505269615.4,286046975.8,N
1505269635.2,286046981.9,N
1505269655.0,286046979.4,N
1505269655.9,286046979.4,N
1505269675.8,286046981.8,N
1505269695.6,286046978.1,N
1505269715.4,286046975.5,N
1505269735.2,286046970.9,N
1505269755.1,286046970.9,N
1505269756.0,286046970.9,N
1505269775.8,286046969.5,N
1505269795.6,286046970.4,N
1505269815.5,286046968.2,N
1505269835.3,286046968.9,N
1505269855.1,286046966.1,N
1505269875.9,286046967.4,N
1505269895.7,286046964.9,N
1505269915.5,286046970.5,N
1505269935.4,286046975.3,N
1505269955.2,286046972.6,N
1505269975.0,286046976.4,N
1505269975.9,286046976.4,N
1505269995.8,286046975.8,N
1505270015.6,286046980.0,N
1505270035.4,286046978.7,P
1505270055.3,286046996.5,N
1505270075.1,286046995.0,N
1505270076.0,286046995.0,N
1505270095.8,286047000.2,N
1505270115.7,286047000.7,N
1505270135.5,286046995.3,N
1505270155.3,286046999.4,N
1505270175.2,286046995.0,N
1505270195.9,286046996.8,N
1505270215.7,286046994.3,N
1505270235.5,286046997.9,N
1505270255.4,286046996.7,N
1505270275.2,286046998.8,N
1505270295.0,286046996.5,N
1505270295.9,286046996.5,N
1505270315.8,286047002.4,N
1505270335.6,286047001.0,N
1505270355.4,286046997.1,N
1505270375.3,286046994.6,N
1505270395.1,286046990.4,N
1505270396.0,286046990.4,N
1505270415.8,286046987.6,N
1505270435.7,286046986.0,N
1505270455.5,286046984.6,N
1505270475.3,286046983.6,N
1505270495.2,286046983.4,N
1505270515.9,286046977.7,P
1505270535.7,286046985.5,N
1505270555.6,286046982.1,N
1505270575.4,286046986.4,N
1505270595.2,286046992.7,N
1505270615.0,286046997.7,N
1505270616.0,286046997.7,N
1505270635.8,286047003.5,N
1505270655.6,286047008.6,N
1505270675.4,286047010.9,N
1505270695.3,286047015.3,N
1505270715.1,286047016.2,N
1505270735.8,286047016.2,N
1505270755.7,286047016.0,N
1505270775.5,286047013.1,N
1505270795.3,286047015.5,N
1505270815.2,286047016.7,N
1505270835.9,286047017.5,N
1505270855.7,286047023.2,N
1505270875.6,286047022.9,N
1505270895.4,286047025.4,N
1505270915.2,286047025.8,N
1505270935.0,286047024.2,N
1505270936.0,286047024.2,N
1505270955.8,286047028.1,N
1505270975.6,286047027.7,N
1505270995.4,286047027.1,N
1505271015.3,286047027.4,N
1505271035.1,286047029.7,N
1505271055.8,286047028.9,N
1505271075.7,286047027.9,N
1505271095.5,286047027.8,N
1505271115.3,286047026.3,N
1505271135.2,286047028.4,N
1505271155.9,286047025.8,N
1505271175.7,286047025.4,N
1505271195.6,286047025.4,P
1505271215.4,286047004.6,N
1505271235.2,286047005.9,N
1505271255.1,286047008.3,N
1505271256.0,286047008.3,N
1505271275.8,286047008.9,N
1505271295.6,286047009.7,N
1505271315.5,286047006.5,N
1505271335.3,286047009.1,N
1505271355.1,286047009.0,N
1505271375.9,286047007.7,N
1505271395.7,286047009.7,N
1505271415.5,286047011.8,N
1505271435.3,286047010.3,N
1505271455.2,286047007.3,N
1505271475.0,286047004.3,N
1505271475.9,286047004.3,N
1505271495.7,286046996.5,N
1505271515.6,286047000.4,N
1505271535.4,286047004.1,N
1505271555.2,286047002.1,N
1505271575.1,286047000.9,N
1505271576.0,286047000.9,N
1505271595.8,286046995.9,N
